Location: G�ndlingen
(48.0142°N, 7.6396°E)
Time: 18:06:30
(UTC+00:00)

SL-16 R/B - Pass Details

Date: 05 July 2020
Orbit: 839 x 850 km, 71.0° (Epoch: 12 August)

Event Time Altitude Azimuth Distance (km) Brightness Sun altitude
Exits shadow 21:18:48 - 107° (ESE) 2,527 4.2 -13.1°
Maximum altitude 21:20:08 10° 94° (E) 2,472 4.3 -13.2°
Drops below altitude 10° 21:20:17 10° 92° (E) 2,473 4.3 -13.2°
Sets 21:25:58 0° 47° (NE) 3,418 5.5 -13.7°
